Simultaneous Nadir Overpasses (SNOs) Predictions

Prediction of SNOs between NOAA-19 and METOP-C Satellite Orbit:

Table of predicted SNOs for the next 14.0 days since TLE Epoch: 6/25/2022
Index Date (NOAA-19) Time (NOAA-19) Lat,Lon (NOAA-19) SZA (NOAA-19 ) Date (METOP-C) Time (METOP-C) Lat,Lon (METOP-C) SZA (METOP-C ) Distance(km) Time Diff (sec)
1 07/01/2022 22:59:26 80.86,-131.81 59.26 07/01/2022 23:00:22 80.86,-131.66 59.29 2.72 56
2 07/01/2022 23:50:21 -80.85, 35.59 120.73 07/01/2022 23:51:04 -80.86, 35.73 120.70 2.57 43
3 07/02/2022 00:41:25 80.85,-156.99 59.29 07/02/2022 00:41:44 80.85,-157.15 59.28 2.81 19
4 07/02/2022 01:32:20 -80.85, 10.42 120.70 07/02/2022 01:32:26 -80.85, 10.25 120.72 3.02 6
5 07/02/2022 02:23:25 80.85, 177.46 59.29 07/02/2022 02:23:06 80.84, 177.37 59.26 2.20 19
6 07/02/2022 03:14:20 -80.85, -15.13 120.70 07/02/2022 03:13:48 -80.84, -15.24 120.73 2.12 32
7 07/02/2022 04:05:24 80.85, 152.29 59.32 07/02/2022 04:04:27 80.85, 152.23 59.30 1.04 57



Historial Predications of SNOs between NOAA-19 and METOP-C
